Flight Track Log - Related Links

Times and Time Zones

All times are in EDT time to prevent confusion due to time zone crossing. See the PDT4314 flight status page for this flight to view local times or setup timezone preferences in your user account.

Time Position Orientation Groundspeed Altitude Reporting Facility
EDT Latitude Longitude Course Direction KTS MPH feet Rate Location/Type
Mon 06:35:00 PM 42.0533 -75.9288 180° South  Level Estimated
Mon 06:36:00 PM 42.0001 -75.9296 181° South  Level FlightAware Approximate
Mon 06:37:00 PM 41.9469 -75.9304 181° South  Level FlightAware Approximate
Mon 06:38:00 PM 41.8937 -75.9312 181° South  Level FlightAware Approximate
Mon 06:39:00 PM 41.8422 -75.9131 154° Southeast  Level Estimated
Mon 06:40:00 PM 41.7907 -75.8950 160° South  Level Estimated
Mon 06:41:00 PM 41.7380 -75.8855 172° South  Level FlightAware Approximate
Mon 06:42:00 PM 41.6865 -75.8672 159° South  Level Estimated
Mon 06:43:00 PM 41.6352 -75.8486 165° South  Level FlightAware Approximate
Mon 06:44:00 PM 41.5837 -75.8304 153° Southeast  Level Estimated
Mon 06:45:00 PM 41.5323 -75.8122 161° South  Level Estimated
Mon 06:46:00 PM 41.4823 -75.7879 160° South  Level FlightAware Approximate
Mon 06:47:00 PM 41.4323 -75.7636 160° South  Level FlightAware Approximate
Mon 06:48:00 PM 41.3823 -75.7393 160° South  Level FlightAware Approximate
Mon 06:49:00 PM 41.3307 -75.7219 162° South  Level Estimated
Mon 06:50:00 PM 41.2805 -75.6982 160° South  Level FlightAware Approximate
Mon 06:51:00 PM 41.2304 -75.6746 161° South  Level FlightAware Approximate
Mon 06:52:00 PM 41.1802 -75.6510 161° South  Level FlightAware Approximate
Mon 06:53:00 PM 41.1300 -75.6275 161° South  Level FlightAware Approximate
Mon 06:54:00 PM 41.0782 -75.6113 159° South  Level Estimated
Mon 06:55:00 PM 41.0264 -75.5951 163° South  Level Estimated
Mon 06:56:00 PM 40.9763 -75.5715 160° South  Level FlightAware Approximate
Mon 06:57:00 PM 40.9261 -75.5479 160° South  Level FlightAware Approximate
Mon 06:58:00 PM 40.8759 -75.5244 160° South  Level FlightAware Approximate
Mon 06:58:07 PM 40.6833 -75.6333 182° South 245 282 6,200  Level Philadelphia TRACON
Mon 06:58:49 PM 40.6333 -75.6333 180° South 242 278 5,700 -647 Descending Philadelphia TRACON
Mon 06:59:00 PM 40.8258 -75.5009 160° South  Level FlightAware Approximate
Mon 06:59:49 PM 40.5667 -75.6167 169° South 235 270 5,100  Level Philadelphia TRACON
Mon 07:00:00 PM 40.7737 -75.4865 190° South  Level Estimated
Mon 07:00:49 PM 40.5167 -75.6167 180° South 227 261 5,000  Level Philadelphia TRACON
Mon 07:01:00 PM 40.7205 -75.4892 182° South  Level FlightAware Approximate
Mon 07:01:49 PM 40.4500 -75.6000 169° South 218 251 5,000  Level Philadelphia TRACON
Mon 07:02:00 PM 40.6673 -75.4918 182° South  Level FlightAware Approximate
Mon 07:02:50 PM 40.4000 -75.5667 153° Southeast 236 272 5,000  Level Philadelphia TRACON
Mon 07:03:00 PM 40.6141 -75.4944 182° South  Level FlightAware Approximate
Mon 07:03:50 PM 40.4167 -75.4667 78° East 246 283 5,000  Level Philadelphia TRACON
Mon 07:04:50 PM 40.4167 -75.3833 90° East 238 274 5,000 -150 Level Philadelphia TRACON
Mon 07:05:50 PM 40.3667 -75.3167 135° Southeast 226 260 4,700 -450 Descending Philadelphia TRACON
Mon 07:06:50 PM 40.3167 -75.3000 166° South 200 230 4,100 -350 Descending Philadelphia TRACON
Mon 07:07:50 PM 40.2667 -75.2833 166° South 201 231 4,000 -50 Descending Philadelphia TRACON
Mon 07:08:50 PM 40.2167 -75.2667 166° South 204 235 4,000  Level Philadelphia TRACON
Mon 07:09:50 PM 40.1500 -75.2500 169° South 202 232 4,000  Level Philadelphia TRACON
Mon 07:10:56 PM 40.1000 -75.2167 153° Southeast 196 226 4,000  Level Philadelphia TRACON
Mon 07:11:50 PM 40.0500 -75.2000 166° South 193 222 4,000  Level Philadelphia TRACON
Mon 07:12:50 PM 40.0000 -75.1833 166° South 192 221 4,000  Level Philadelphia TRACON
Mon 07:13:51 PM 39.9500 -75.1500 153° Southeast 194 223 4,000  Level Philadelphia TRACON
Mon 07:14:51 PM 39.9000 -75.1333 166° South 195 224 4,000  Level Philadelphia TRACON
Mon 07:15:51 PM 39.8500 -75.1000 153° Southeast 196 226 4,000  Level Philadelphia TRACON
Mon 07:16:51 PM 39.8000 -75.0833 166° South 196 226 4,000 -300 Level Philadelphia TRACON
Mon 07:17:51 PM 39.7667 -75.1167 218° Southwest 175 201 3,400 -850 Descending Philadelphia TRACON
Mon 07:18:51 PM 39.7667 -75.1667 270° West 175 201 2,300 -1,000 Descending Philadelphia TRACON
Mon 07:19:51 PM 39.8167 -75.2000 333° Northwest 176 203 1,400 -850 Descending Philadelphia TRACON
Mon 07:20:51 PM 39.8500 -75.2167 339° North 129 148 600 -800 Descending Philadelphia TRACON

Login

Don't have an account? Register now (free) for customized features, flight alerts, and more!